Terminal Aerodrome Forecast
Issued by NWS King Salmon, AK

Home | Current Version | Previous Version | Text Only | Print | Product List | Glossary On
Versions: 1 2 3 4 5 6 7 8 9 10 11 12 13 14 15 16 17 18 19 20 21 22 23 24 25 26 27 28 29 30
000
FTAK31 PANC 231130
TAFAKN
TAF
PAKN 231130Z 2312/2412 32009KT P6SM BKN035
     FM240300 20008KT 3SM -SNRA OVC015
     FM240700 24010KT 4SM -RA BKN007=

USA.gov is the U.S. government's official web portal to all federal, state and local government web resources and services.